KJ4CO Weather Reports


time (UTC)temp
C
wind
direction
speed
KPH
gust
KPH
rain 1hr
cm
rain 24hr
cm
rain mn
cm
humidity
%
barometer
mb
20260510224543 22 353 0.0 0.0 0.00 0.00 0.00 57 1016.8
20260510223042 22 353 0.0 0.0 0.00 0.00 0.00 57 1016.5
20260510221549 22 353 0.0 0.0 0.00 0.00 0.00 57 1016.6
20260510220042 23 354 0.0 0.0 0.00 0.00 0.00 57 1016.6
20260510214544 23 353 0.0 0.0 0.00 0.00 0.00 56 1016.5
20260510213039 22 355 0.0 0.0 0.00 0.00 0.00 58 1016.4
20260510211540 23 3 0.0 0.0 0.00 0.00 0.00 58 1016.5
20260510210043 23 3 0.0 0.0 0.00 0.00 0.00 57 1016.4
20260510204540 23 3 0.0 0.0 0.00 0.00 0.00 58 1016.3
20260510203037 23 3 0.0 0.0 0.00 0.00 0.00 59 1016.4
20260510201538 23 39 0.0 0.0 0.00 0.00 0.00 59 1016.5
20260510200106 23 66 0.0 0.0 0.00 0.00 0.00 61 1016.8
20260510194545 23 24 0.0 0.0 0.00 0.00 0.00 62 1016.7
20260510193042 24 26 0.0 0.0 0.00 0.00 0.00 64 1016.7
20260510191531 24 340 0.0 0.0 0.00 0.00 0.00 69 1016.5
20260510190030 25 191 0.0 0.0 0.00 0.00 0.00 69 1016.4
20260510184528 24 195 0.0 0.0 0.00 0.00 0.00 66 1016.3
20260510183041 24 190 0.0 0.0 0.00 0.00 0.00 65 1016.1
20260510181528 24 187 0.0 0.0 0.00 0.00 0.00 66 1016.0
20260510180024 24 188 0.0 0.0 0.00 0.00 0.00 67 1016.1
20260510174524 24 188 0.0 0.0 0.00 0.00 0.00 66 1016.2
20260510173022 23 190 0.0 0.0 0.00 0.00 0.00 65 1016.4
20260510171519 23 133 0.0 0.0 0.00 0.00 0.00 64 1016.5
20260510170018 23 133 0.0 0.0 0.00 0.00 0.00 67 1016.6
20260510164520 23 133 0.0 0.0 0.00 0.00 0.00 69 1016.6
20260510163015 23 133 0.0 0.0 0.00 0.00 0.00 67 1016.7
20260510161512 22 133 0.0 0.0 0.00 0.00 0.00 71 1016.6
20260510160012 22 129 0.0 0.0 0.00 0.00 0.00 68 1016.5
20260510154509 22 129 0.0 0.0 0.00 0.00 0.00 68 1016.3
20260510153008 22 129 0.0 0.0 0.00 0.00 0.00 72 1016.2
20260510151505 21 129 0.0 0.0 0.00 0.00 0.00 70 1016.0
20260510150001 21 129 0.0 0.0 0.00 0.00 0.00 69 1016.0
20260510144501 21 129 0.0 0.0 0.00 0.00 0.00 68 1015.9
20260510143059 21 129 0.0 0.0 0.00 0.00 0.00 67 1015.8
20260510141603 21 129 0.0 0.0 0.00 0.00 0.00 72 1015.7
20260510140055 20 129 0.0 0.0 0.00 0.00 0.00 75 1015.4
20260510134555 18 129 0.0 0.0 0.00 0.00 0.00 77 1015.2
20260510133100 17 129 0.0 0.0 0.00 0.00 0.00 88 1015.2
20260510131539 16 129 0.0 0.0 0.00 0.00 0.00 91 1015.3
20260510130036 15 129 0.0 0.0 0.00 0.00 0.00 94 1015.2
20260510124531 15 129 0.0 0.0 0.00 0.00 0.00 94 1015.0
20260510123031 13 129 0.0 0.0 0.00 0.00 0.00 94 1014.9
20260510121528 13 129 0.0 0.0 0.00 0.00 0.00 93 1014.8
20260510120030 13 129 0.0 0.0 0.00 0.00 0.00 93 1014.8
20260510114525 13 129 0.0 0.0 0.00 0.00 0.00 92 1014.4
20260510113022 13 129 0.0 0.0 0.00 0.00 0.00 91 1013.9
20260510111519 13 129 0.0 0.0 0.00 0.00 0.00 91 1013.8
20260510110019 13 129 0.0 0.0 0.00 0.00 0.00 90 1013.6
20260510104515 13 129 0.0 0.0 0.00 0.00 0.00 90 1013.6
20260510103015 13 129 0.0 0.0 0.00 0.00 0.00 90 1013.4
20260510101513 13 129 0.0 0.0 0.00 0.00 0.00 89 1013.4
20260510100012 13 129 0.0 0.0 0.00 0.00 0.00 88 1013.3
20260510094512 13 129 0.0 0.0 0.00 0.00 0.00 87 1013.4
20260510093011 13 129 0.0 0.0 0.00 0.00 0.00 86 1013.5
20260510091511 14 129 0.0 0.0 0.00 0.00 0.00 85 1013.1
20260510090008 14 129 0.0 0.0 0.00 0.00 0.00 86 1013.2
20260510084505 13 129 0.0 0.0 0.00 0.00 0.00 88 1012.7
20260510083002 13 129 0.0 0.0 0.00 0.00 0.00 88 1012.4
20260510081605 13 129 0.0 0.0 0.00 0.00 0.00 88 1012.2
20260510080100 13 129 0.0 0.0 0.00 0.00 0.00 89 1011.9
20260510074558 13 129 0.0 0.0 0.00 0.00 0.00 88 1011.8
20260510073112 14 129 0.0 0.0 0.00 0.00 0.00 87 1012.0
20260510071604 14 129 0.0 0.0 0.00 0.00 0.00 86 1012.0
20260510070052 14 129 0.0 0.0 0.00 0.00 0.00 85 1012.1
20260510064556 15 129 0.0 0.0 0.00 0.00 0.00 86 1012.0
20260510063048 15 129 0.0 0.0 0.00 0.00 0.00 86 1011.8
20260510061544 15 129 0.0 0.0 0.00 0.00 0.00 85 1011.6
20260510060042 15 129 0.0 0.0 0.00 0.00 0.00 85 1011.8
20260510054541 15 129 0.0 0.0 0.00 0.00 0.00 84 1011.8
20260510053038 15 129 0.0 0.0 0.00 0.00 0.00 84 1011.7
20260510051543 15 129 0.0 0.0 0.00 0.00 0.00 84 1011.7
20260510050038 15 129 0.0 0.0 0.00 0.00 0.00 84 1011.6
20260510044545 15 129 0.0 0.0 0.00 0.00 0.00 84 1011.5
20260510043035 15 129 0.0 0.0 0.00 0.00 0.00 84 1011.4
20260510041533 15 129 0.0 0.0 0.00 0.00 0.00 84 1011.4
20260510040033 15 129 0.0 0.0 0.00 0.00 0.00 83 1011.3
20260510034536 15 129 0.0 0.0 0.00 0.00 0.00 84 1011.4
20260510033032 15 130 0.0 0.0 0.00 0.00 0.00 83 1011.3
20260510031533 16 130 0.0 0.0 0.00 0.00 0.00 81 1011.4
20260510030030 16 130 0.0 0.0 0.00 0.00 0.00 80 1011.3
20260510024529 16 130 0.0 0.0 0.00 0.00 0.00 79 1011.2
20260510023027 17 130 0.0 0.0 0.00 0.00 0.00 77 1011.1
20260510021534 17 130 0.0 0.0 0.00 0.00 0.00 75 1011.0
20260510020024 18 130 0.0 0.0 0.00 0.00 0.00 73 1010.9
20260510014523 18 130 0.0 0.0 0.00 0.00 0.00 72 1010.7
20260510013021 20 130 0.0 0.0 0.00 0.00 0.00 69 1010.5
20260510011521 20 130 0.0 0.0 0.00 0.00 0.00 64 1010.2
20260510010021 21 130 0.0 0.0 0.00 0.00 0.00 63 1010.0
20260510004520 21 130 0.0 0.0 0.00 0.00 0.00 63 1009.8
20260510003023 22 130 0.0 0.0 0.00 0.00 0.00 59 1009.6
20260510001519 23 130 0.0 0.0 0.00 0.00 0.00 57 1009.4
20260510000020 25 130 0.0 0.0 0.00 0.00 0.00 55 1009.4
20260509234524 26 130 0.0 0.0 0.00 0.00 0.00 48 1009.1
20260509233018 26 130 0.0 0.0 0.00 0.00 0.00 43 1009.2
20260509231517 27 130 0.0 0.0 0.00 0.00 0.00 41 1009.2
20260509230016 27 130 0.0 0.0 0.00 0.00 0.00 42 1009.3